Regional Weather Roundup
Issued by NWS Kansas City/Pleasant Hill, MO

Home | Current Version | Previous Version | Graphics & Text | Print | Product List | Glossary Off
Versions: 1 2 3 4 5 6 7 8 9 10 11 12 13 14 15 16 17 18 19 20 21 22 23 24 25 26 27 28 29 30 31 32 33 34 35 36 37 38 39 40 41 42 43 44 45 46 47 48 49 50

000
ASUS43 KEAX 272110
RWREAX

WEATHER ROUNDUP FOR EASTERN KANSAS AND NORTHWEST MISSOURI
NATIONAL WEATHER SERVICE KANSAS CITY/PLEASANT HILL MO
400 PM CDT WED AUG 27 2014

KSZ040-057-103>105-MOZ028-029-037-043-272200-
...KANSAS CITY METROPOLITAN AREA...

CITY           SKY/WX    TMP DP  RH WIND       PRES   REMARKS
K.C. INTL      PTSUNNY   85  69  58 E10       30.08F
K.C. DOWNTOWN  SUNNY     87  70  56 E14       30.06F HX  92
LEES SUMMIT    MOSUNNY   85  73  67 E12       30.08F HX  91
OLATHE - IXD   MOSUNNY   89  71  55 E12       30.07F HX  95
OLATHE - OJC   MOSUNNY   87  71  58 E12       30.07F HX  93
LAWRENCE       PTSUNNY   87  71  58 NE12      30.05F HX  93

$$

MOZ001>008-011>017-020>025-030>033-038>040-044>046-053-054-272200-
...NORTHERN AND CENTRAL MISSOURI...

CITY           SKY/WX    TMP DP  RH WIND       PRES   REMARKS
ST. JOSEPH     MOSUNNY   81  72  74 VRB6      30.08F
MOSBY          CLEAR     82  68  61 E8        30.08F
WHITEMAN AFB   MOSUNNY   82  48  30 NE9       30.07F
CLINTON        MOSUNNY   84  75  74 NE10      30.07F HX  92
SEDALIA        PTSUNNY   83  73  72 N8        30.10F
WARSAW         NOT AVBL
MARSHALL       PTSUNNY   86  73  66 E8        30.10F HX  93
CHILLICOTHE      N/A     81  71  71 NE6       30.10F
MOBERLY        CLOUDY    84  70  61 NE8       30.10F
KIRKSVILLE     CLOUDY    77  70  79 NE3       30.12F

$$

MOZ041-047>049-056>058-063>065-088>090-097-272200-
...EASTERN AND SOUTHERN MISSOURI...

CITY           SKY/WX    TMP DP  RH WIND       PRES   REMARKS
ST. LOUIS INTL PTSUNNY   93  75  55 N13       30.03F HX 104
SPIRIT OF STL  PTSUNNY   92  74  55 N9        30.02F HX 101
COLUMBIA       PTSUNNY   86  75  69 N13       30.09S HX  95
JEFFERSON CITY PTSUNNY   91  74  57 N10       30.04F HX 100
MEXICO         PTSUNNY   86  79  79 N5        30.09F HX  99
HANNIBAL       CLOUDY    84  70  61 N7        30.09F
ROLLA          LGT RAIN  77  68  73 E3        30.06F
LEBANON        CLOUDY    86  66  51 CALM      30.08F
OSAGE BEACH    CLOUDY    81  64  57 W7        30.06F
SPRINGFIELD    MOSUNNY   94  62  34 W5        30.04F HX  94
BRANSON        MOSUNNY   99  61  28 SE5       30.06F HX  99
NEVADA         SUNNY     93  72  49 NE9       30.04F HX 100
JOPLIN         MOSUNNY   93  66  40 VRB3      30.04F HX  96
WEST PLAINS    LGT RAIN  86  73  65 N7        30.08S HX  93

$$

IAZ060-094-KSZ022-034>040-054-083-096-NEZ052-066-093-272200-
...KANSAS...SOUTHEAST NEBRASKA AND IOWA...

CITY           SKY/WX    TMP DP  RH WIND       PRES   REMARKS
TOPEKA         PTSUNNY   87  73  62 NE9       30.05F HX  94
MANHATTAN      CLOUDY    89  71  55 NE8       30.04F HX  95
EMPORIA        PTSUNNY   91  64  40 VRB3      30.04F HX  92
CHANUTE        MOSUNNY   94  63  35 CALM      30.03F HX  95
WICHITA        CLOUDY    92  64  39 VRB5      30.03F HX  93
OMAHA          CLOUDY    74  69  85 CALM      30.06F
LINCOLN        CLOUDY    75  69  81 SE12      30.09F
FALLS CITY     PTSUNNY   80  70  71 SE3       30.08F
LAMONI         CLOUDY    75  69  81 E6        30.10F
DES MOINES     CLOUDY    76  67  73 E8        30.10F

$$



USA.gov is the U.S. government's official web portal to all federal, state and local government web resources and services.